This demonstration page uses our WeatherBlox Daily Observations layout. Learn more.

Left ArrowRight Arrow

36.17497, -115.13722

Hourly Observations for September 13, 2017

Temp ( °F °C ) Dew Point ( °F °C ) Humidity (%) Winds ( mph kmh ) Pressure ( in mb ) Visibility ( mi km ) Precip ( " mm )
12:53 am 00:53 Clear 88 31.1 45 7.2 22 22 NNW 12 19 29.78 1009 10 16 0.00 0.00
1:53 am 01:53 Clear 86 30 46 7.8 25 25 WNW 6 9 29.79 1009 10 16 0.00 0.00
2:53 am 02:53 Clear 84 28.9 47 8.3 27 27 NW 10 17 29.78 1009 10 16 0.00 0.00
3:53 am 03:53 Clear 83 28.3 47 8.3 28 28 NNW 7 11 29.78 1009 10 16 0.00 0.00
4:53 am 04:53 Clear 82 27.8 48 8.9 31 31 NNW 3 6 29.80 1009 10 16 0.00 0.00
5:53 am 05:53 Clear 81 27.2 47 8.3 30 30 N 5 7 29.80 1009 10 16 0.00 0.00
6:53 am 06:53 Sunny 83 28.3 47 8.3 28 28 N 7 11 29.82 1010 10 16 0.00 0.00
7:53 am 07:53 Partly Cloudy 84 28.9 50 10 31 31 Calm 29.82 1010 10 16 0.00 0.00
8:53 am 08:53 Mostly Sunny 87 30.6 49 9.4 27 27 VRB 3 6 29.83 1010 10 16 0.00 0.00
9:53 am 09:53 Sunny 91 32.8 48 8.9 23 23 ENE 5 7 29.83 1010 10 16 0.00 0.00
10:53 am 10:53 Sunny 94 34.4 46 7.8 19 19 E 12 19 29.81 1010 10 16 0.00 0.00
11:53 am 11:53 Mostly Cloudy 94 34.4 47 8.3 20 20 E 13 20 29.80 1009 10 16 0.00 0.00
12:53 pm 12:53 Sunny 94 34.4 46 7.8 19 19 E 8 13 29.78 1009 10 16 0.00 0.00
1:53 pm 13:53 Sunny 96 35.6 46 7.8 18 18 VRB 5 7 29.75 1007 10 16 0.00 0.00
2:53 pm 14:53 Mostly Cloudy 97 36.1 45 7.2 17 17 VRB 3 6 29.72 1006 10 16 0.00 0.00
3:38 pm 15:38 Partly Cloudy with Thunderstorms 96 35.6 45 7.2 17 17 SE 6 9 29.53 1000 10 16 0.00 0.00
3:53 pm 15:53 Partly Cloudy with Nearby Thunderstorms 96 35.6 45 7.2 17 17 SSE 10 17 29.69 1006 10 16 0.00 0.00
4:12 pm 16:12 Mostly Sunny 96 35.6 45 7.2 17 17 ESE 9 15 29.50 999 10 16 0.00 0.00
4:18 pm 16:18 Partly Cloudy with Thunderstorms 96 35.6 45 7.2 17 17 S 12 19 29.50 999 10 16 0.00 0.00
4:38 pm 16:38 Mostly Sunny 96 35.6 45 7.2 17 17 S 8 13 29.50 999 10 16 0.00 0.00
4:51 pm 16:51 Sunny with Nearby Thunderstorms 97 36 45 7 17 17 VRB 5 7 29.50 999 10 16 0.00 0.00
4:53 pm 16:53 Sunny with Nearby Thunderstorms 96 35.6 45 7.2 17 17 undefined N/A 29.67 1005 10 16 0.00 0.00
5:01 pm 17:01 Sunny with Thunderstorms 96 35.6 45 7.2 17 17 W 3 6 29.50 999 10 16 0.00 0.00
5:40 pm 17:40 Sunny 95 35 46 7.8 19 19 VRB 3 6 29.50 999 10 16 0.00 0.00
5:53 pm 17:53 Sunny 94 34.4 48 8.9 21 21 VRB 3 6 29.66 1004 10 16 0.00 0.00
6:53 pm 18:53 Clear 93 33.9 49 9.4 22 22 W 7 11 29.66 1004 10 16 0.00 0.00
7:53 pm 19:53 Clear 91 32.8 48 8.9 23 23 NNW 6 9 29.65 1004 10 16 0.00 0.00
8:53 pm 20:53 Mostly Clear 87 30.6 51 10.6 29 29 WNW 16 26 29.68 1005 10 16 0.00 0.00
9:53 pm 21:53 Clear 83 28.3 52 11.1 34 34 N 9 15 29.69 1005 10 16 0.00 0.00
10:53 pm 22:53 Clear 81 27.2 56 13.3 42 42 W 7 11 29.69 1005 10 16 0.00 0.00
11:06 pm 23:06 Clear with Nearby Thunderstorms 81 27.2 57 13.9 44 44 WNW 8 13 29.59 1002 10 16 0.00 0.00
11:21 pm 23:21 Clear 81 27.2 57 13.9 44 44 W 9 15 29.59 1002 10 16 0.00 0.00
11:53 pm 23:53 Clear 81 27.2 58 14.4 45 45 Calm 29.70 1006 10 16 0.00 0.00

Powered by AerisWeather